Waarnemingen

Advertentie
Mijn weer
La Roda de Andalucia, Spanje (8399): temperatuur & dauwpunt: 19.06.2018 15:00:00 - 25.06.2018 15:00:00 (CEST)La Roda de Andalucia, Spanje (8399): windsnelheid & windstoten: 19.06.2018 15:00:00 - 25.06.2018 15:00:00 (CEST)La Roda de Andalucia, Spanje (8399): windrichting: 19.06.2018 15:00:00 - 25.06.2018 15:00:00 (CEST)La Roda de Andalucia, Spanje (8399): luchtdruk: 19.06.2018 15:00:00 - 25.06.2018 15:00:00 (CEST)La Roda de Andalucia, Spanje (8399): zicht: 19.06.2018 15:00:00 - 25.06.2018 15:00:00 (CEST)La Roda de Andalucia, Spanje (8399): Zonneschijnduur: 19.06.2018 15:00:00 - 25.06.2018 15:00:00 (CEST)La Roda de Andalucia, Spanje (8399): neerslag: 19.06.2018 15:00:00 - 25.06.2018 15:00:00 (CEST)
Datum & Tijd tt [°C] td [°C] ff [km/u] ff [kn] fx [km/u] fx [kn] dd ppp [hPa] vv [km] sd [min] rr [mm]
25.06.2018 15:00:00 30,4 12,3 7 4 22 12 ONO 1013,3 20 60 0,0
25.06.2018 14:00:00 27,9 13,8 5 3 25 14 NNO 1014,2 20 60 -
25.06.2018 13:00:00 26,2 14,3 8 4 16 8 NO 1014,8 20 60 0,0
25.06.2018 12:00:00 23,8 14,8 5 3 16 9 N 1015,5 17 60 0,0
25.06.2018 11:00:00 20,8 15,2 8 4 17 9 NNW 1016,1 12 41 0,0
25.06.2018 10:00:00 19,3 15,2 9 5 16 8 N 1016,2 11 0 0,0
25.06.2018 09:00:00 18,6 15,1 8 5 17 9 N 1016,1 10 0 0,0
25.06.2018 08:00:00 - - - - - - - - - - -
25.06.2018 07:00:00 - - - - - - - - - - -
25.06.2018 06:00:00 - - - - - - - - - - -
25.06.2018 05:00:00 - - - - - - - - - - -
25.06.2018 04:00:00 19,5 15,3 6 4 12 7 N 1015,3 10 0 0,0
25.06.2018 03:00:00 - - - - - - - - - - -
25.06.2018 02:00:00 21,5 11,8 13 7 24 13 ZZW 1015,1 20 0 -
25.06.2018 01:00:00 - - - - - - - - - - -
25.06.2018 00:00:00 23,4 11,4 9 5 30 16 ZZW 1014,3 20 0 0,0
24.06.2018 23:00:00 25,0 11,9 14 7 24 13 ZW 1013,3 20 0 0,0
24.06.2018 22:00:00 26,8 15,8 14 8 33 18 W 1011,9 20 0 0,0
24.06.2018 21:00:00 29,5 15,3 15 8 29 16 W 1010,7 20 34 0,0
24.06.2018 20:00:00 32,3 12,0 15 8 29 15 W 1009,9 20 60 -
24.06.2018 19:00:00 34,7 9,2 16 8 32 17 ZZW 1009,3 20 60 0,0
24.06.2018 18:00:00 36,0 9,6 12 6 22 12 Z 1009,5 20 60 0,0
24.06.2018 17:00:00 36,2 10,4 10 5 27 15 ZZW 1009,7 20 60 0,0
24.06.2018 16:00:00 36,4 9,8 10 5 23 12 Z 1010,2 20 60 0,0
24.06.2018 15:00:00 35,3 10,4 10 5 29 15 Z 1011,0 20 60 0,0
24.06.2018 14:00:00 33,7 10,3 11 6 27 14 ZZW 1011,7 20 60 -
24.06.2018 13:00:00 32,4 9,2 11 6 23 12 ZZW 1012,5 20 60 0,0
24.06.2018 12:00:00 30,8 8,5 7 4 16 9 ZZW 1012,7 20 60 0,0
24.06.2018 11:00:00 28,6 9,8 3 1 8 4 OZO 1013,1 20 60 0,0
24.06.2018 10:00:00 25,3 11,8 1 1 5 3 OZO 1013,8 20 60 0,0
24.06.2018 09:00:00 20,8 12,5 1 1 8 5 W 1014,0 20 48 0,0
24.06.2018 08:00:00 16,4 10,5 6 3 9 5 Z 1014,7 20 0 -
24.06.2018 07:00:00 15,9 9,8 4 2 9 5 Z 1014,7 20 0 0,0
24.06.2018 06:00:00 16,0 8,5 6 3 9 5 Z 1014,6 20 0 0,0
24.06.2018 05:00:00 17,3 7,8 0 0 11 6 N 1014,5 20 0 0,0
24.06.2018 04:00:00 19,4 8,4 6 3 12 7 Z 1014,0 20 0 0,0
24.06.2018 03:00:00 21,4 8,3 6 3 22 12 Z 1013,6 20 0 0,0
24.06.2018 02:00:00 22,1 8,5 11 6 26 14 ZZW 1013,9 20 0 -
24.06.2018 01:00:00 23,1 7,6 11 6 22 12 Z 1013,7 20 0 0,0
24.06.2018 00:00:00 24,2 6,4 11 6 29 16 ZZW 1013,5 20 0 0,0
23.06.2018 23:00:00 24,9 6,5 13 7 27 14 Z 1012,9 20 0 0,0
23.06.2018 22:00:00 26,7 6,1 8 4 27 15 Z 1012,2 20 0 0,0
23.06.2018 21:00:00 28,5 6,5 13 7 40 21 ZZW 1011,2 20 22 0,0
23.06.2018 20:00:00 30,5 7,7 14 8 38 20 Z 1010,7 20 60 -
23.06.2018 19:00:00 31,2 7,6 17 9 40 22 Z 1010,8 20 60 0,0
23.06.2018 18:00:00 32,5 8,0 18 10 39 21 Z 1010,7 20 60 0,0
23.06.2018 17:00:00 33,5 8,1 16 9 39 21 Z 1010,9 20 60 0,0
23.06.2018 16:00:00 33,7 6,8 19 10 39 21 Z 1011,3 20 60 0,0
23.06.2018 15:00:00 34,1 7,1 13 7 30 16 Z 1011,7 20 60 0,0
23.06.2018 14:00:00 33,1 7,1 9 5 27 14 ZZO 1012,3 20 60 -
23.06.2018 13:00:00 32,0 8,3 9 5 22 12 Z 1013,0 20 60 0,0
23.06.2018 12:00:00 28,9 9,6 5 3 11 6 NW 1013,7 20 60 0,0
23.06.2018 11:00:00 27,3 10,5 3 2 11 6 ONO 1014,3 20 60 0,0
23.06.2018 10:00:00 24,6 11,6 2 1 15 8 N 1014,8 20 60 0,0
23.06.2018 09:00:00 21,1 11,1 8 4 14 8 ZZO 1015,1 20 51 0,0
23.06.2018 08:00:00 16,8 11,6 1 1 10 5 ZZW 1015,8 20 0 -
23.06.2018 07:00:00 - - - - - - - - - - -
23.06.2018 06:00:00 - - - - - - - - - - -
23.06.2018 05:00:00 - - - - - - - - - - -
23.06.2018 04:00:00 - - - - - - - - - - -
23.06.2018 03:00:00 19,9 8,9 2 1 13 7 WZW 1015,7 20 0 0,0
23.06.2018 02:00:00 21,4 8,9 3 1 27 15 N 1015,3 20 0 -
23.06.2018 01:00:00 21,4 8,7 12 7 29 15 ZZW 1015,2 20 0 0,0
23.06.2018 00:00:00 22,3 8,4 16 9 34 19 ZZW 1015,1 20 0 0,0
22.06.2018 23:00:00 23,3 8,1 18 10 33 18 ZZW 1014,3 20 0 0,0
22.06.2018 22:00:00 24,9 7,1 16 9 39 21 ZZW 1013,3 20 19 0,0
22.06.2018 21:00:00 27,8 7,1 19 11 38 21 ZZW 1012,6 20 60 0,0
22.06.2018 20:00:00 30,4 7,6 16 9 32 18 Z 1011,6 20 60 -
22.06.2018 19:00:00 32,0 7,6 14 8 33 18 ZZW 1011,5 20 60 0,0
22.06.2018 18:00:00 32,9 7,7 14 7 32 18 ZZW 1011,6 20 60 0,0
22.06.2018 17:00:00 33,6 8,3 13 7 29 15 ZZW 1011,7 20 60 0,0
22.06.2018 16:00:00 33,4 8,1 9 5 29 15 Z 1011,9 20 60 0,0
22.06.2018 15:00:00 31,4 9,0 9 5 19 10 NNO 1012,6 20 60 0,0
22.06.2018 14:00:00 31,0 8,7 8 4 18 10 OZO 1013,5 13 60 -
22.06.2018 13:00:00 29,6 9,2 8 4 18 10 ONO 1014,5 20 60 0,0
22.06.2018 12:00:00 28,7 7,8 4 2 19 10 NNW 1015,1 20 60 0,0
22.06.2018 11:00:00 26,2 8,7 5 3 15 8 NNO 1015,4 20 60 0,0
22.06.2018 10:00:00 23,5 10,9 5 3 10 5 O 1015,8 20 54 0,0
22.06.2018 09:00:00 21,1 10,9 2 1 6 3 ZZO 1016,1 20 23 0,0
22.06.2018 08:00:00 - - - - - - - - - - -
22.06.2018 07:00:00 - - - - - - - - - - -
22.06.2018 06:00:00 - - - - - - - - - - -
22.06.2018 05:00:00 - - - - - - - - - - -
22.06.2018 04:00:00 - - - - - - - - - - -
22.06.2018 03:00:00 - - - - - - - - - - -
22.06.2018 02:00:00 21,3 8,9 9 5 25 13 WZW 1016,6 20 0 -
22.06.2018 01:00:00 21,7 8,5 10 5 24 13 WZW 1016,7 20 0 0,0
22.06.2018 00:00:00 22,6 8,7 15 8 32 18 ZW 1015,9 20 0 0,0
21.06.2018 23:00:00 23,3 8,5 17 9 35 19 ZZW 1015,0 20 0 0,0
21.06.2018 22:00:00 24,5 8,4 19 10 38 20 ZZW 1014,2 20 16 0,0
21.06.2018 21:00:00 26,8 8,3 22 12 36 20 ZZW 1013,6 20 60 0,0
21.06.2018 20:00:00 29,0 8,1 21 12 40 21 ZZW 1012,7 20 60 -
21.06.2018 19:00:00 30,7 8,4 19 10 38 21 ZZW 1012,3 20 60 0,0
21.06.2018 18:00:00 32,4 8,0 15 8 34 19 Z 1012,2 20 60 0,0
21.06.2018 17:00:00 33,0 7,7 12 6 36 20 Z 1012,2 20 60 0,0
21.06.2018 16:00:00 34,0 7,8 14 8 31 17 Z 1012,0 20 60 0,0
21.06.2018 15:00:00 33,2 8,0 10 5 27 15 Z 1012,7 20 60 0,0
21.06.2018 14:00:00 32,3 7,8 12 6 28 15 Z 1013,1 20 60 -
21.06.2018 13:00:00 29,9 8,3 13 7 23 13 Z 1014,1 20 52 0,0
21.06.2018 12:00:00 29,2 8,3 7 4 23 12 ZZO 1014,2 20 60 0,0
21.06.2018 11:00:00 27,1 8,0 12 6 22 12 ZZO 1014,8 20 60 0,0
21.06.2018 10:00:00 24,7 9,0 13 7 24 13 ZZO 1015,7 20 23 0,0
21.06.2018 09:00:00 23,2 8,8 7 4 16 9 ZO 1015,6 20 44 0,0
21.06.2018 08:00:00 20,0 8,7 8 4 14 8 ZZO 1016,0 20 0 -
21.06.2018 07:00:00 19,0 9,2 8 5 26 14 WZW 1016,6 20 0 0,0
21.06.2018 06:00:00 19,6 9,4 11 6 21 12 ZZO 1015,7 20 0 0,0
21.06.2018 05:00:00 18,5 9,6 4 2 10 6 ZZW 1016,0 20 0 0,0
21.06.2018 04:00:00 19,5 10,5 7 4 19 10 ZZW 1016,6 20 0 0,0
21.06.2018 03:00:00 20,5 10,3 8 4 27 15 ZZW 1016,5 20 0 0,0
21.06.2018 02:00:00 20,4 11,1 10 5 22 12 ZW 1016,4 20 0 -
21.06.2018 01:00:00 20,8 11,1 11 6 30 16 WZW 1015,8 20 0 0,0
21.06.2018 00:00:00 21,7 11,1 16 8 38 20 ZZW 1015,3 20 0 0,0
20.06.2018 23:00:00 22,9 10,3 18 10 37 20 ZZW 1014,5 20 0 0,0
20.06.2018 22:00:00 24,3 10,2 18 10 37 20 ZZW 1013,7 20 10 0,0
20.06.2018 21:00:00 27,0 8,4 20 11 36 20 ZZW 1013,2 20 60 0,0
20.06.2018 20:00:00 29,7 7,0 19 11 38 21 ZZW 1012,6 20 60 -
20.06.2018 19:00:00 31,1 6,8 19 10 42 23 Z 1012,1 20 60 0,0
20.06.2018 18:00:00 32,7 7,6 14 7 30 16 Z 1012,3 20 60 0,0
20.06.2018 17:00:00 33,3 6,5 11 6 29 16 Z 1012,5 20 60 0,0
20.06.2018 16:00:00 33,0 6,2 13 7 29 15 ZZW 1012,9 20 60 0,0
20.06.2018 15:00:00 32,4 7,3 13 7 36 19 Z 1013,5 20 60 0,0
20.06.2018 14:00:00 30,9 8,0 17 9 34 18 Z 1014,4 20 60 -
20.06.2018 13:00:00 30,1 8,5 12 7 29 16 Z 1014,8 20 60 0,0
20.06.2018 12:00:00 28,0 9,3 11 6 22 12 ZZW 1015,1 20 60 0,0
20.06.2018 11:00:00 25,8 9,2 11 6 32 17 Z 1015,9 20 60 0,0
20.06.2018 10:00:00 23,7 10,0 16 9 30 16 Z 1016,4 20 60 0,0
20.06.2018 09:00:00 21,6 10,2 13 7 29 16 Z 1016,7 20 53 0,0
20.06.2018 08:00:00 19,8 10,5 9 5 26 14 Z 1016,7 20 0 -
20.06.2018 07:00:00 - - - - - - - - - - -
20.06.2018 06:00:00 - - - - - - - - - - -
20.06.2018 05:00:00 19,2 11,2 21 12 46 25 Z 1015,8 20 0 0,0
20.06.2018 04:00:00 19,4 11,9 24 13 49 27 Z 1015,9 20 0 0,0
20.06.2018 03:00:00 19,3 12,1 24 13 49 26 Z 1016,4 20 0 0,0
20.06.2018 02:00:00 20,1 11,8 21 11 43 23 Z 1016,6 20 0 -
20.06.2018 01:00:00 19,8 11,6 15 8 32 17 Z 1016,9 20 0 0,0
20.06.2018 00:00:00 20,2 11,9 20 11 46 25 Z 1016,9 20 0 0,0
19.06.2018 23:00:00 20,8 11,4 19 11 43 23 Z 1016,6 20 0 0,0
19.06.2018 22:00:00 21,7 10,5 18 10 43 23 Z 1016,0 20 22 0,0
19.06.2018 21:00:00 24,2 9,3 22 12 53 29 Z 1015,6 20 60 0,0
19.06.2018 20:00:00 26,5 8,0 26 14 54 29 Z 1015,0 20 60 -
19.06.2018 19:00:00 28,6 8,8 24 13 50 27 Z 1014,4 20 60 0,0
19.06.2018 18:00:00 29,8 7,7 24 13 53 29 Z 1014,8 20 60 0,0
19.06.2018 17:00:00 30,8 6,7 22 12 56 31 Z 1015,1 20 60 0,0
19.06.2018 16:00:00 29,7 7,0 27 15 57 31 Z 1015,8 20 60 0,0
19.06.2018 15:00:00 29,9 7,1 24 13 56 30 Z 1016,0 20 60 0,0

tt = temperatuur
td = dauwpunt
ff = windsnelheid
fx = windstoten
dd = windrichting
ppp = luchtdruk
vv = zicht
sd = Zonneschijnduur
rr = neerslag

Weerstations in de omgeving